Location: Tabor
(49.4170°N, 14.6670°E)
Time: 16:52:45
(UTC+01:00)

ISS - Pass Details

Date: 02 December 2023
Orbit: 414 x 417 km, 51.6° (Epoch: 23 February)

Event Time Altitude Azimuth Distance (km) Brightness Sun altitude
Rises 19:05:47 0° 283° (WNW) 2,385 1.2 -28.6°
Reaches altitude 10° 19:08:35 10° 258° (WSW) 1,520 0.0 -29.0°
Enters shadow 19:09:55 14° 235° (SW) 1,299 -0.7 -29.3°
